�������l�o���
Date,Time,MP-1(��Sv/h),MP-2(��Sv/h),MP-3(��Sv/h),MP-4(��Sv/h),MP-5(��Sv/h),MP-6(��Sv/h),MP-7(��Sv/h),MP-8(��Sv/h),����,����(m/s),���J
2024/05/09,00:00,0.491,0.747,0.474,0.943,0.670,0.309,0.543,0.509,�k��,5.3,�L
2024/05/09,00:10,0.492,0.746,0.474,0.942,0.672,0.309,0.544,0.509,�k�k��,5.9,�L
2024/05/09,00:20,0.489,0.748,0.472,0.941,0.670,0.308,0.543,0.510,�k�k��,5.2,�L
2024/05/09,00:30,0.490,0.746,0.473,0.940,0.671,0.308,0.546,0.510,�k��,4.3,�L
2024/05/09,00:40,0.491,0.744,0.474,0.942,0.671,0.310,0.545,0.509,�k�k��,4.6,�L
2024/05/09,00:50,0.492,0.745,0.474,0.942,0.670,0.310,0.544,0.510,�k��,6.5,�L
2024/05/09,01:00,0.488,0.746,0.473,0.943,0.670,0.309,0.545,0.509,�k�k��,6.3,�L
2024/05/09,01:10,0.492,0.746,0.472,0.943,0.669,0.309,0.545,0.509,�k�k��,6.5,�L
2024/05/09,01:20,0.491,0.745,0.473,0.942,0.671,0.310,0.544,0.509,�k�k��,5.1,�L
2024/05/09,01:30,0.492,0.744,0.473,0.941,0.669,0.309,0.545,0.509,�k�k��,6.5,�L
2024/05/09,01:40,0.488,0.743,0.474,0.940,0.670,0.309,0.545,0.509,�k�k��,6.5,�L
2024/05/09,01:50,0.491,0.743,0.472,0.940,0.669,0.308,0.545,0.509,�k�k��,5.2,�L
2024/05/09,02:00,0.489,0.744,0.473,0.940,0.668,0.308,0.545,0.509,�k�k��,4.5,�L
2024/05/09,02:10,0.491,0.743,0.473,0.941,0.671,0.308,0.547,0.509,�k�k��,4.2,�L
2024/05/09,02:20,0.490,0.744,0.472,0.941,0.668,0.309,0.547,0.507,�k��,4.5,�L
2024/05/09,02:30,0.489,0.743,0.472,0.940,0.668,0.310,0.545,0.509,�k��,4.6,�L
2024/05/09,02:40,0.489,0.741,0.474,0.942,0.668,0.306,0.545,0.509,�k�k��,5.1,�L
2024/05/09,02:50,0.491,0.743,0.473,0.941,0.669,0.308,0.545,0.510,�k��,4.8,�L
2024/05/09,03:00,0.488,0.745,0.471,0.939,0.668,0.309,0.547,0.510,�k��,4.6,�L
2024/05/09,03:10,0.489,0.743,0.472,0.940,0.669,0.309,0.545,0.509,�k�k��,5.0,�L
2024/05/09,03:20,0.490,0.742,0.472,0.939,0.671,0.309,0.545,0.509,�k��,5.0,�L
2024/05/09,03:30,0.490,0.743,0.473,0.939,0.668,0.309,0.545,0.509,�k��,5.4,�L
2024/05/09,03:40,0.489,0.745,0.473,0.940,0.669,0.308,0.545,0.508,�k�k��,5.1,�L
2024/05/09,03:50,0.488,0.742,0.472,0.939,0.667,0.308,0.543,0.509,�k�k��,5.0,�L
2024/05/09,04:00,0.488,0.743,0.473,0.938,0.667,0.309,0.545,0.510,�k�k��,5.5,�L
2024/05/09,04:10,0.490,0.743,0.472,0.940,0.668,0.308,0.544,0.510,�k�k��,5.5,�L
2024/05/09,04:20,0.489,0.742,0.470,0.937,0.669,0.307,0.545,0.508,�k�k��,5.7,�L
2024/05/09,04:30,0.489,0.743,0.471,0.938,0.669,0.308,0.546,0.509,�k��,5.3,�L
2024/05/09,04:40,0.491,0.741,0.472,0.940,0.666,0.308,0.546,0.509,�k�k��,6.4,�L
2024/05/09,04:50,0.489,0.742,0.471,0.939,0.667,0.308,0.544,0.509,�k�k��,6.8,�L
2024/05/09,05:00,0.488,0.741,0.470,0.938,0.665,0.309,0.545,0.507,�k�k��,6.4,�L
2024/05/09,05:10,0.488,0.740,0.470,0.939,0.669,0.307,0.543,0.509,�k�k��,6.2,�L
2024/05/09,05:20,0.489,0.741,0.471,0.937,0.668,0.307,0.544,0.509,�k�k��,6.2,�L
2024/05/09,05:30,0.488,0.741,0.471,0.939,0.667,0.308,0.544,0.510,�k�k��,6.2,�L
2024/05/09,05:40,0.488,0.742,0.472,0.938,0.666,0.308,0.543,0.509,�k��,6.7,�L
2024/05/09,05:50,0.487,0.741,0.470,0.938,0.667,0.307,0.544,0.508,�k�k��,7.5,�L
2024/05/09,06:00,0.487,0.740,0.470,0.939,0.667,0.308,0.544,0.510,�k��,6.4,�L
2024/05/09,06:10,0.489,0.740,0.471,0.937,0.667,0.307,0.544,0.509,�k��,4.9,�L
2024/05/09,06:20,0.488,0.742,0.472,0.939,0.666,0.307,0.546,0.508,�k��,6.3,�L
2024/05/09,06:30,0.487,0.739,0.471,0.938,0.666,0.308,0.544,0.509,�k��,6.9,�L
2024/05/09,06:40,0.489,0.741,0.471,0.937,0.667,0.308,0.542,0.508,�k��,6.9,�L
2024/05/09,06:50,0.488,0.741,0.472,0.937,0.667,0.307,0.543,0.510,�k��,6.1,�L
2024/05/09,07:00,0.485,0.739,0.471,0.938,0.666,0.306,0.541,0.510,�k��,5.7,�L
2024/05/09,07:10,0.489,0.739,0.470,0.937,0.666,0.308,0.543,0.509,�k��,7.3,�L
2024/05/09,07:20,0.487,0.740,0.472,0.937,0.664,0.307,0.543,0.508,�k��,6.6,�L
2024/05/09,07:30,0.488,0.738,0.471,0.940,0.665,0.307,0.542,0.510,�k��,6.8,�L
2024/05/09,07:40,0.487,0.738,0.473,0.938,0.665,0.308,0.542,0.508,�k��,6.9,�L
2024/05/09,07:50,0.486,0.737,0.470,0.934,0.665,0.307,0.541,0.509,���k��,6.7,�L
2024/05/09,08:00,0.485,0.736,0.471,0.935,0.666,0.305,0.541,0.509,�k��,7.1,�L
2024/05/09,08:10,0.485,0.735,0.471,0.934,0.664,0.307,0.542,0.509,�k��,7.7,�L
2024/05/09,08:20,0.486,0.734,0.469,0.932,0.662,0.306,0.540,0.508,�k��,7.9,�L
2024/05/09,08:30,0.484,0.737,0.470,0.932,0.662,0.306,0.542,0.510,�k��,6.5,�L
2024/05/09,08:40,0.485,0.737,0.469,0.934,0.663,0.307,0.543,0.509,�k��,6.6,�L
2024/05/09,08:50,0.486,0.736,0.469,0.935,0.664,0.305,0.540,0.508,�k��,6.5,�L
2024/05/09,09:00,0.487,0.737,0.469,0.934,0.663,0.306,0.541,0.510,�k��,7.2,�L
2024/05/09,09:10,0.487,0.738,0.471,0.932,0.665,0.305,0.541,0.511,�k��,6.2,��
2024/05/09,09:20,0.486,0.736,0.470,0.934,0.664,0.306,0.540,0.509,�k��,6.5,��
2024/05/09,09:30,0.487,0.738,0.470,0.934,0.666,0.305,0.540,0.509,�k�k��,5.7,��
2024/05/09,09:40,0.485,0.737,0.470,0.934,0.664,0.306,0.540,0.511,�k��,7.6,�L
2024/05/09,09:50,0.486,0.739,0.471,0.934,0.666,0.305,0.539,0.510,�k��,5.9,�L
2024/05/09,10:00,0.487,0.738,0.469,0.934,0.665,0.306,0.541,0.509,�k��,6.1,�L
2024/05/09,10:10,0.488,0.737,0.470,0.936,0.666,0.305,0.540,0.509,�k��,5.4,�L
2024/05/09,10:20,0.488,0.740,0.471,0.933,0.666,0.306,0.540,0.511,�k��,5.9,�L
2024/05/09,10:30,0.488,0.738,0.470,0.936,0.666,0.305,0.542,0.510,�k��,6.7,�L
2024/05/09,10:40,0.486,0.741,0.470,0.934,0.668,0.306,0.541,0.510,�k�k��,6.2,�L
2024/05/09,10:50,0.489,0.739,0.471,0.935,0.667,0.305,0.541,0.512,�k�k��,5.2,�L
2024/05/09,11:00,0.487,0.741,0.471,0.934,0.665,0.306,0.541,0.510,�k�k��,4.9,�L
2024/05/09,11:10,0.489,0.737,0.469,0.934,0.668,0.306,0.542,0.510,�k�k��,4.9,�L
2024/05/09,11:20,0.488,0.741,0.472,0.936,0.666,0.306,0.541,0.511,�k�k��,5.7,��
2024/05/09,11:30,0.489,0.740,0.473,0.937,0.668,0.306,0.541,0.511,�k�k��,5.7,��
2024/05/09,11:40,0.490,0.742,0.472,0.934,0.668,0.307,0.540,0.511,�k�k��,4.8,��
2024/05/09,11:50,0.490,0.742,0.472,0.934,0.667,0.306,0.541,0.512,�k�k��,4.7,��
2024/05/09,12:00,0.487,0.740,0.473,0.935,0.668,0.306,0.541,0.509,�k�k��,5.4,��
2024/05/09,12:10,0.487,0.740,0.472,0.937,0.666,0.305,0.541,0.508,�k,4.8,��
2024/05/09,12:20,0.487,0.740,0.472,0.936,0.666,0.305,0.543,0.507,�k�k��,6.4,��
2024/05/09,12:30,0.487,0.741,0.470,0.937,0.667,0.305,0.541,0.509,�k�k��,7.2,��
2024/05/09,12:40,0.487,0.742,0.473,0.938,0.668,0.306,0.541,0.511,�k�k��,7.4,��
2024/05/09,12:50,0.489,0.739,0.472,0.936,0.669,0.305,0.540,0.510,�k�k��,7.3,��
2024/05/09,13:00,0.488,0.740,0.472,0.938,0.669,0.305,0.543,0.508,�k�k��,7.1,��
2024/05/09,13:10,0.487,0.742,0.473,0.938,0.668,0.304,0.542,0.508,�k�k��,7.4,��
2024/05/09,13:20,0.490,0.742,0.472,0.939,0.667,0.304,0.541,0.508,�k�k��,7.6,��
2024/05/09,13:30,0.490,0.744,0.472,0.938,0.669,0.306,0.541,0.509,�k�k��,7.7,��
2024/05/09,13:40,0.490,0.742,0.472,0.939,0.669,0.306,0.541,0.508,�k,7.0,��
2024/05/09,13:50,0.489,0.742,0.472,0.939,0.669,0.305,0.542,0.507,�k�k��,7.5,��
2024/05/09,14:00,0.490,0.743,0.471,0.938,0.670,0.305,0.542,0.509,�k�k��,7.2,��
2024/05/09,14:10,0.490,0.743,0.473,0.939,0.668,0.307,0.542,0.508,�k�k��,7.2,��
2024/05/09,14:20,0.490,0.745,0.472,0.939,0.670,0.306,0.541,0.509,�k�k��,7.1,��
2024/05/09,14:30,0.491,0.743,0.473,0.938,0.669,0.306,0.542,0.509,�k�k��,7.1,��
2024/05/09,14:40,0.491,0.742,0.473,0.938,0.668,0.306,0.543,0.509,�k�k��,7.6,��
2024/05/09,14:50,0.490,0.742,0.475,0.939,0.671,0.306,0.542,0.509,�k�k��,7.6,��
2024/05/09,15:00,0.491,0.746,0.475,0.941,0.670,0.307,0.541,0.509,�k�k��,6.8,��
2024/05/09,15:10,0.491,0.745,0.474,0.941,0.672,0.306,0.543,0.511,�k�k��,6.6,��
2024/05/09,15:20,0.491,0.745,0.474,0.941,0.670,0.306,0.543,0.510,�k�k��,6.2,��
2024/05/09,15:30,0.489,0.745,0.475,0.940,0.671,0.308,0.544,0.509,�k�k��,6.7,��
2024/05/09,15:40,0.492,0.748,0.475,0.940,0.672,0.307,0.543,0.511,�k�k��,6.6,��
2024/05/09,15:50,0.490,0.746,0.474,0.939,0.673,0.307,0.541,0.510,�k�k��,6.4,��
2024/05/09,16:00,0.491,0.747,0.474,0.939,0.671,0.308,0.542,0.509,�k�k��,6.6,��
2024/05/09,16:10,0.491,0.748,0.474,0.939,0.672,0.308,0.545,0.511,�k,6.9,��
2024/05/09,16:20,0.491,0.746,0.474,0.940,0.672,0.307,0.542,0.510,�k�k��,6.4,��
2024/05/09,16:30,0.490,0.749,0.475,0.940,0.672,0.308,0.543,0.509,�k�k��,5.7,��
2024/05/09,16:40,0.490,0.748,0.474,0.939,0.672,0.308,0.543,0.510,�k,5.3,��
2024/05/09,16:50,0.492,0.750,0.475,0.941,0.672,0.308,0.542,0.511,�k�k��,4.9,��
2024/05/09,17:00,0.492,0.748,0.475,0.939,0.672,0.307,0.543,0.510,�k�k��,4.2,��
2024/05/09,17:10,0.492,0.750,0.475,0.940,0.672,0.308,0.542,0.511,�k�k��,4.7,��
2024/05/09,17:20,0.490,0.749,0.477,0.941,0.674,0.308,0.543,0.512,�k�k��,4.2,��
2024/05/09,17:30,0.491,0.749,0.476,0.939,0.672,0.310,0.543,0.513,�k,2.9,��
2024/05/09,17:40,0.491,0.752,0.475,0.939,0.672,0.310,0.542,0.512,�k,2.9,��
2024/05/09,17:50,0.492,0.750,0.475,0.940,0.674,0.309,0.543,0.513,�k,4.9,��
2024/05/09,18:00,0.493,0.751,0.475,0.941,0.674,0.310,0.544,0.512,�k,5.4,��
2024/05/09,18:10,0.494,0.749,0.476,0.940,0.674,0.309,0.544,0.512,�k,5.5,��
2024/05/09,18:20,0.494,0.752,0.474,0.942,0.675,0.309,0.544,0.511,�k�k��,5.1,��
2024/05/09,18:30,0.493,0.748,0.475,0.942,0.674,0.309,0.543,0.511,�k��,5.9,��
2024/05/09,18:40,0.492,0.749,0.476,0.941,0.677,0.310,0.542,0.511,�k��,6.9,��
2024/05/09,18:50,0.490,0.750,0.476,0.941,0.675,0.310,0.543,0.511,�k��,4.4,��
2024/05/09,19:00,0.494,0.750,0.476,0.941,0.674,0.309,0.542,0.511,�k��,3.1,��
2024/05/09,19:10,0.492,0.750,0.476,0.942,0.675,0.310,0.544,0.513,���k��,5.7,��
2024/05/09,19:20,0.492,0.749,0.478,0.942,0.674,0.308,0.544,0.511,�k��,6.2,��
2024/05/09,19:30,0.493,0.750,0.477,0.943,0.674,0.309,0.544,0.511,�k��,6.5,��
2024/05/09,19:40,0.495,0.750,0.477,0.941,0.677,0.308,0.543,0.510,�k��,3.8,��
2024/05/09,19:50,0.492,0.749,0.477,0.941,0.675,0.308,0.544,0.511,�k��,3.5,��
2024/05/09,20:00,0.494,0.748,0.477,0.943,0.674,0.309,0.544,0.511,�k��,3.8,��
2024/05/09,20:10,0.493,0.752,0.477,0.944,0.675,0.308,0.544,0.511,�k��,6.6,��
2024/05/09,20:20,0.493,0.749,0.477,0.942,0.676,0.309,0.545,0.510,�k��,6.2,��
2024/05/09,20:30,0.494,0.750,0.477,0.942,0.675,0.308,0.545,0.510,�k��,6.5,��
2024/05/09,20:40,0.493,0.751,0.477,0.941,0.675,0.308,0.546,0.510,�k��,6.5,��
2024/05/09,20:50,0.494,0.750,0.477,0.945,0.675,0.308,0.545,0.511,���k��,6.5,��
2024/05/09,21:00,0.492,0.751,0.478,0.942,0.677,0.309,0.546,0.511,�k��,7.6,��
2024/05/09,21:10,0.492,0.750,0.476,0.942,0.674,0.307,0.545,0.510,�k��,6.4,��
2024/05/09,21:20,0.493,0.752,0.478,0.943,0.673,0.309,0.547,0.510,�k��,7.0,��
2024/05/09,21:30,0.493,0.749,0.477,0.944,0.676,0.309,0.544,0.510,�k��,6.7,��
2024/05/09,21:40,0.494,0.750,0.476,0.942,0.675,0.307,0.546,0.511,�k��,6.7,��
2024/05/09,21:50,0.493,0.749,0.478,0.942,0.676,0.309,0.546,0.512,�k��,7.2,��
2024/05/09,22:00,0.494,0.752,0.476,0.944,0.673,0.309,0.545,0.513,�k��,6.7,��
2024/05/09,22:10,0.493,0.751,0.477,0.941,0.675,0.307,0.546,0.511,�k��,6.2,��
2024/05/09,22:20,0.493,0.751,0.476,0.943,0.676,0.309,0.547,0.511,�k��,5.5,��
2024/05/09,22:30,0.494,0.751,0.475,0.944,0.675,0.308,0.547,0.512,�k��,5.1,��
2024/05/09,22:40,0.493,0.750,0.476,0.945,0.678,0.310,0.548,0.511,�k��,6.0,��
2024/05/09,22:50,0.495,0.751,0.477,0.942,0.677,0.307,0.547,0.511,�k��,6.0,��
2024/05/09,23:00,0.494,0.750,0.476,0.943,0.676,0.308,0.547,0.511,���k��,6.9,��
2024/05/09,23:10,0.494,0.749,0.476,0.945,0.677,0.308,0.546,0.511,���k��,6.0,��
2024/05/09,23:20,0.494,0.750,0.477,0.943,0.676,0.309,0.546,0.513,���k��,6.5,��
2024/05/09,23:30,0.492,0.748,0.477,0.944,0.676,0.308,0.547,0.511,���k��,6.8,��
2024/05/09,23:40,0.494,0.749,0.477,0.944,0.675,0.309,0.547,0.511,�k��,7.1,��
2024/05/09,23:50,0.492,0.749,0.477,0.944,0.675,0.308,0.545,0.512,�k��,6.2,��
